This is the latest recevied weather packets stored in our database for station/object K7ZQU-7. If no packets are shown the sender has not sent any weather packets the latest 10 day(s).
| Time | Temp. | Humidity | Pressure | Rain* | Wind** | Luminosity | Snow |
|---|---|---|---|---|---|---|---|
| 1777528744 | 6.67° C | 53% | 1019.8 hPa | 0 mm | 1.34 m/s, 39° | - | - |
| 1777528445 | 6.11° C | 54% | 1019.8 hPa | 0 mm | 2.68 m/s, 152° | - | - |
| 1777528145 | 6.11° C | 55% | 1019.8 hPa | 0 mm | 2.68 m/s, 219° | - | - |
| 1777527547 | 6.11° C | 57% | 1019.8 hPa | 0 mm | 1.79 m/s, 200° | - | - |
| 1777527256 | 6.11° C | 56% | 1019.8 hPa | 0 mm | 0.89 m/s, 217° | - | - |
| 1777526647 | 6.11° C | 56% | 1019.8 hPa | 0 mm | 0 m/s | - | - |
| 1777526049 | 6.67° C | 56% | 1019.9 hPa | 0 mm | 0.45 m/s, 205° | - | - |
| 1777525748 | 6.67° C | 55% | 1019.9 hPa | 0 mm | 0 m/s | - | - |
| 1777525449 | 6.67° C | 55% | 1019.9 hPa | 0 mm | 0.89 m/s, 246° | - | - |
| 1777525149 | 6.67° C | 55% | 1019.8 hPa | 0 mm | 0.89 m/s, 149° | - | - |
| 1777524850 | 6.67° C | 56% | 1019.9 hPa | 0 mm | 1.34 m/s, 172° | - | - |
| 1777524551 | 6.67° C | 56% | 1019.9 hPa | 0 mm | 0.89 m/s, 201° | - | - |
| 1777524250 | 6.67° C | 57% | 1019.9 hPa | 0 mm | 0 m/s | - | - |
| 1777523951 | 6.67° C | 57% | 1019.9 hPa | 0 mm | 0.89 m/s, 136° | - | - |
| 1777523652 | 7.22° C | 56% | 1019.9 hPa | 0 mm | 1.34 m/s, 204° | - | - |
| 1777523353 | 6.67° C | 56% | 1019.8 hPa | 0 mm | 0.89 m/s, 124° | - | - |
| 1777523054 | 7.22° C | 56% | 1019.9 hPa | 0 mm | 0.89 m/s, 201° | - | - |
| 1777522752 | 7.22° C | 56% | 1019.9 hPa | 0 mm | 0.45 m/s, 219° | - | - |
| 1777521556 | 7.22° C | 55% | 1019.8 hPa | 0 mm | 1.79 m/s, 107° | - | - |
| 1777520656 | 7.78° C | 55% | 1019.7 hPa | 0 mm | 0 m/s | - | - |
| 1777520357 | 7.78° C | 54% | 1019.8 hPa | 0 mm | 0 m/s | - | - |
| 1777520058 | 7.78° C | 54% | 1019.7 hPa | 0 mm | 0.89 m/s, 155° | - | - |
| 1777519756 | 7.78° C | 53% | 1019.7 hPa | 0 mm | 0.89 m/s, 158° | - | - |
| 1777519457 | 8.33° C | 53% | 1019.6 hPa | 0 mm | 0 m/s | - | - |
| 1777518859 | 8.33° C | 52% | 1019.6 hPa | 0 mm | 0.45 m/s, 212° | - | - |
* Rain latest hour (hover to see other rain measurements)
** Current wind speed in m/s (hover to see current wind gust speed)